This demonstration page uses our WeatherBlox Daily Observations layout. Learn more.

Left ArrowRight Arrow

34.74481, -87.66753

Hourly Observations for February 9, 2021

Temp ( °F °C ) Dew Point ( °F °C ) Humidity (%) Winds ( mph kmh ) Pressure ( in mb ) Visibility ( mi km ) Precip ( " mm )
12:53 am 00:53 Cloudy 44 6.7 38 3.3 79 79 Calm 30.10 1019 10 16 0.00 0.00
1:53 am 01:53 Mostly Clear 42 5.6 36 2.2 79 79 SSE 6 9 30.09 1019 10 16 0.00 0.00
2:53 am 02:53 Clear 41 5 35 1.7 79 79 SE 6 9 30.08 1019 10 16 0.00 0.00
3:53 am 03:53 Cloudy 43 6.1 36 2.2 76 76 Calm 30.07 1018 10 16 0.00 0.00
4:53 am 04:53 Cloudy 46 7.8 39 3.9 77 77 ENE 3 6 30.09 1019 10 16 0.00 0.00
5:53 am 05:53 Mostly Cloudy 44 6.7 38 3.3 79 79 E 3 6 30.10 1019 10 16 0.00 0.00
6:53 am 06:53 Cloudy 46 7.8 40 4.4 79 79 E 3 6 30.11 1020 10 16 0.00 0.00
7:53 am 07:53 Cloudy 50 10 41 5 71 71 SE 3 6 30.13 1020 10 16 0.00 0.00
8:04 am 08:04 Cloudy 50 10 42 5.6 74 74 Calm 30.15 1021 10 16 0.00 0.00
8:21 am 08:21 Cloudy 50 10 42 5.6 74 74 Calm 30.15 1021 10 16 0.00 0.00
8:42 am 08:42 Cloudy 52 11.1 42 5.6 69 69 Calm 30.16 1021 10 16 0.00 0.00
8:53 am 08:53 Cloudy 52 11.1 42 5.6 69 69 Calm 30.15 1021 10 16 0.00 0.00
9:39 am 09:39 Cloudy 54 12.2 42 5.6 64 64 WNW 3 6 30.17 1022 10 16 0.00 0.00
9:53 am 09:53 Cloudy 54 12.2 42 5.6 64 64 NW 6 9 30.18 1022 10 16 0.00 0.00
10:53 am 10:53 Cloudy 54 12.2 44 6.7 69 69 WNW 6 9 30.18 1022 10 16 0.00 0.00
11:06 am 11:06 Cloudy 55 12.8 44 6.7 67 67 WNW 3 6 30.18 1022 10 16 0.00 0.00
11:53 am 11:53 Mostly Sunny 59 15 45 7.2 60 60 VRB 5 7 30.16 1021 10 16 0.00 0.00
12:53 pm 12:53 Sunny 61 16.1 45 7.2 56 56 Calm 30.12 1020 10 16 0.00 0.00
1:53 pm 13:53 Cloudy 63 17.2 46 7.8 54 54 SW 3 6 30.11 1020 10 16 0.00 0.00
2:53 pm 14:53 Cloudy 63 17.2 45 7.2 52 52 Calm 30.11 1020 10 16 0.00 0.00
3:53 pm 15:53 Sunny 64 17.8 45 7.2 50 50 E 3 6 30.11 1020 10 16 0.00 0.00
4:53 pm 16:53 Mostly Sunny 63 17.2 44 6.7 50 50 N 3 6 30.11 1020 10 16 0.00 0.00
5:53 pm 17:53 Cloudy 59 15 45 7.2 60 60 NE 5 7 30.12 1020 10 16 0.00 0.00
6:53 pm 18:53 Cloudy 58 14.4 46 7.8 65 65 Calm 30.13 1020 10 16 0.00 0.00
7:53 pm 19:53 Mostly Cloudy 57 13.9 45 7.2 64 64 Calm 30.13 1020 10 16 0.00 0.00
8:53 pm 20:53 Cloudy 55 12.8 45 7.2 69 69 Calm 30.13 1020 10 16 0.00 0.00
9:53 pm 21:53 Cloudy 53 11.7 45 7.2 74 74 Calm 30.13 1020 10 16 0.00 0.00
10:53 pm 22:53 Partly Cloudy 55 12.8 44 6.7 67 67 ENE 3 6 30.14 1021 10 16 0.00 0.00
11:53 pm 23:53 Clear 49 9.4 42 5.6 77 77 Calm 30.14 1021 10 16 0.00 0.00

Powered by AerisWeather